GW3488 Weather Reports


time (UTC)temp
C
wind
direction
speed
KPH
gust
KPH
rain 1hr
cm
rain 24hr
cm
rain mn
cm
humidity
%
barometer
mb
20260503013039 18 180 0.0 4.8 0.00 0.00 0.00 33 1015.8
20260503011535 19 0 1.6 6.4 0.00 0.00 0.00 30 1015.8
20260503010028 19 180 0.0 6.4 0.00 0.00 0.00 29 1016.0
20260503004528 19 180 1.6 4.8 0.00 0.00 0.00 32 1016.0
20260503003027 19 180 1.6 4.8 0.00 0.00 0.00 30 1016.0
20260503001532 19 0 3.2 8.0 0.00 0.00 0.00 30 1016.1
20260503000031 20 294 3.2 9.7 0.00 0.00 0.00 31 1016.3
20260502234529 20 0 1.6 6.4 0.00 0.00 0.00 30 1016.5
20260502233030 19 0 1.6 14.5 0.00 0.00 0.00 30 1016.8
20260502231530 19 180 3.2 12.9 0.00 0.00 0.00 32 1017.1
20260502230028 19 180 0.0 14.5 0.00 0.00 0.00 32 1017.1
20260502224529 19 180 3.2 12.9 0.00 0.00 0.00 32 1017.3
20260502223032 18 0 3.2 16.1 0.00 0.00 0.00 33 1017.4
20260502221531 18 180 6.4 16.1 0.00 0.00 0.00 34 1017.7
20260502220028 18 180 1.6 12.9 0.00 0.00 0.00 34 1017.9
20260502214536 18 180 3.2 9.7 0.00 0.00 0.00 34 1018.1
20260502213030 17 180 4.8 19.3 0.00 0.00 0.00 35 1018.3
20260502211530 17 180 4.8 14.5 0.00 0.00 0.00 37 1018.3
20260502210041 18 180 3.2 14.5 0.00 0.00 0.00 35 1018.5
20260502204531 17 180 4.8 19.3 0.00 0.00 0.00 37 1018.8
20260502203027 18 180 1.6 8.0 0.00 0.00 0.00 35 1018.9
20260502201528 18 180 4.8 14.5 0.00 0.00 0.00 35 1019.0
20260502200028 18 180 4.8 19.3 0.00 0.00 0.00 35 1019.1
20260502194529 18 180 4.8 12.9 0.00 0.00 0.00 37 1019.2
20260502193031 18 180 6.4 14.5 0.00 0.00 0.00 35 1019.3
20260502191531 17 180 1.6 9.7 0.00 0.00 0.00 35 1019.6
20260502190033 18 180 9.7 17.7 0.00 0.00 0.00 36 1019.8
20260502184533 17 180 9.7 22.5 0.00 0.00 0.00 39 1019.8
20260502183028 17 180 16.1 24.1 0.00 0.00 0.00 38 1019.9
20260502181529 17 180 4.8 9.7 0.00 0.00 0.00 37 1020.1
20260502163032 16 180 3.2 20.9 0.00 0.00 0.00 41 1020.7
20260502161530 16 180 8.0 24.1 0.00 0.00 0.00 43 1020.6
20260502151532 13 180 4.8 14.5 0.00 0.00 0.00 44 1020.6
20260502123031 6 0 0.0 3.2 0.00 0.00 0.00 57 1019.4
20260502121532 6 180 1.6 8.0 0.00 0.00 0.00 60 1019.1
20260502114538 5 0 0.0 6.4 0.00 0.00 0.00 60 1018.4
20260502113031 6 180 4.8 9.7 0.00 0.00 0.00 57 1018.3
20260502111529 6 180 8.0 12.9 0.00 0.00 0.00 56 1018.1
20260502110029 7 180 6.4 14.5 0.00 0.00 0.00 54 1018.1
20260502104531 7 180 6.4 12.9 0.00 0.00 0.00 51 1017.9
20260502103030 8 180 8.0 12.9 0.00 0.00 0.00 50 1017.9
20260502101529 8 180 3.2 14.5 0.00 0.00 0.00 48 1017.5
20260502091529 8 180 6.4 9.7 0.00 0.00 0.00 45 1016.7
20260502071527 4 0 1.6 4.8 0.00 0.00 0.00 51 1016.3
20260502070033 4 0 0.0 8.0 0.00 0.00 0.00 50 1016.4
20260502064541 5 180 4.8 8.0 0.00 0.00 0.00 48 1016.4
20260502063031 8 180 4.8 9.7 0.00 0.00 0.00 38 1016.1
20260502061531 10 180 3.2 8.0 0.00 0.00 0.00 37 1016.0
20260502060041 10 180 6.4 9.7 0.00 0.00 0.00 37 1016.0
20260502054529 10 180 6.4 9.7 0.00 0.00 0.00 38 1015.9
20260502053030 10 229 0.0 6.4 0.00 0.00 0.00 37 1015.8
20260502051534 11 180 4.8 9.7 0.00 0.00 0.00 36 1015.9
20260502050033 10 180 4.8 8.0 0.00 0.00 0.00 36 1015.9
20260502044528 10 180 4.8 8.0 0.00 0.00 0.00 37 1015.9
20260502043029 12 180 1.6 6.4 0.00 0.00 0.00 32 1015.8
20260502041534 12 180 1.6 6.4 0.00 0.00 0.00 32 1015.8
20260502040032 13 180 3.2 12.9 0.00 0.00 0.00 29 1015.7
20260502034533 13 180 3.2 9.7 0.00 0.00 0.00 29 1015.7
20260502033032 13 180 4.8 8.0 0.00 0.00 0.00 30 1015.6
20260502031530 13 180 3.2 8.0 0.00 0.00 0.00 28 1015.3
20260502030032 14 180 3.2 8.0 0.00 0.00 0.00 27 1015.1
20260502024533 14 180 3.2 6.4 0.00 0.00 0.00 27 1014.9
20260502023029 15 180 3.2 6.4 0.00 0.00 0.00 26 1014.7
20260502021528 17 180 0.0 3.2 0.00 0.00 0.00 23 1014.7
20260502020034 20 180 1.6 6.4 0.00 0.00 0.00 20 1014.7
20260502014529 21 0 0.0 6.4 0.00 0.00 0.00 18 1014.6